Regional Weather Roundup
Issued by NWS

Home | Current Version | Previous Version | Text Only | Print | Product List | Glossary Off
Versions: 1 2 3 4 5 6 7 8 9 10 11 12 13 14 15 16 17 18 19 20 21 22 23 24 25 26 27 28 29 30 31 32 33 34 35 36 37 38 39 40 41 42 43 44 45 46 47 48 49 50

000
ASUS45 KBOU 030410
RWRCO

WEATHER ROUNDUP FOR COLORADO
NATIONAL WEATHER SERVICE PUEBLO CO
1000 PM MDT SUN AUG 02 2015

NOTE: "FAIR" INDICATES FEW OR NO CLOUDS BELOW 12000 FEET WITH NO
SIGNIFICANT WEATHER AND/OR OBSTRUCTIONS TO VISIBILITY.

COZ001>005-013-030-031-030500-
...NORTHWEST COLORADO...

CITY           SKY/WX    TMP DP  RH WIND       PRES   REMARKS
CRAIG          LGT RAIN  66  32  28 S22G40    30.13F
HAYDEN         CLOUDY    61  52  72 S8        30.18F
MEEKER         LGT RAIN  66  50  56 NE10      30.24R
MOUNT WERNER   NOT AVBL
STEAMBOAT SPGS FAIR      64  49  58 E6        30.21S
WALDEN         FAIR      59  41  51 S6        30.30R
$$

COZ006>008-011-030500-
...WEST CENTRAL VALLEYS...

CITY           SKY/WX    TMP DP  RH WIND       PRES   REMARKS
GRAND JUNCTION CLOUDY    66  58  75 SE7       30.11S
MONTROSE       CLOUDY    63  60  90 W5        30.19R
EAGLE          CLOUDY    64  52  63 W9        30.26R
RIFLE          LGT RAIN  62  59  90 NE5       30.21S
DELTA          NOT AVBL
NUCLA          FAIR      63  59  88 CALM      30.20R
$$

COZ017>023-064>068-030500-
...SOUTHWEST COLORADO...

CITY           SKY/WX    TMP DP  RH WIND       PRES   REMARKS
DURANGO        CLOUDY    59  55  87 N9        30.24R
CORTEZ         CLEAR     65  60  84 E9        30.15S
PAGOSA SPRINGS CLOUDY    57  56  95 NW6       30.29F
TELLURIDE      CLOUDY    54  53  98 CALM      30.39S
WOLF CREEK PAS NOT AVBL
$$

COZ009-010-012-014-032>034-037-058>063-030500-
...CENTRAL COLORADO...

CITY           SKY/WX    TMP DP  RH WIND       PRES   REMARKS
ASPEN          LGT RAIN  56  53  90 S3        30.34S
BUENA VISTA    RAIN      55  52  89 NW9       30.37F
COPPER MTN     CLOUDY    52  39  62 S25G35    30.60R
BERTHOUD PASS  MOCLDY    43  32  65 SE15G24   30.66R
COTTONWOOD PAS LGT RAIN  52  50  93 CALM      30.49S
GUNNISON       CLOUDY    57  54  88 NE6       30.37R
KREMMLING      CLOUDY    66  41  39 CALM      30.27R
LEADVILLE      LGT RAIN  48  48 100 S5        30.49R
MONARCH PASS   LGT RAIN  43  43 100 E13G18    30.71R VSB<1/4
SALIDA         CLOUDY    60  55  84 NW9       30.42R
NIWOT RIDGE    NOT AVBL
SUNLIGHT       LGT RAIN  46  46 100 CALM      30.54S
WILKERSON PASS DRIZZLE   46  37  71 CALM      30.60R
$$

COZ069>075-030500-
...SAN LUIS VALLEY/SANGRE DE CRISTO MOUNTAINS...

CITY           SKY/WX    TMP DP  RH WIND       PRES   REMARKS
ALAMOSA        LGT RAIN  59  54  83 W7        30.31R
LA VETA PASS   CLOUDY    50  41  71 MISG      30.48R
SAGUACHE       DRIZZLE   55  54  94 NW9       30.34F
$$

COZ035-036-038>040-030500-
...NORTHERN COLORADO FRONT RANGE...

CITY           SKY/WX    TMP DP  RH WIND       PRES   REMARKS
DENVER INTL AP CLOUDY    74  47  38 SW14      30.11R
DMNS CITY PARK NOT AVBL
AURORA         MOCLDY    72  48  43 SW12      30.13R
FRONT RANGE AP NOT AVBL
ERIE MUNI ARPT FAIR      74  48  40 S10       30.09R
BOULDER MUN AP FAIR      73  48  40 S8        30.09R
CENTENNIAL     CLOUDY    69  50  50 S20G29    30.13S
BROOMFIELD     MOCLDY    75  46  35 S17       30.13R
LOVELAND       CLOUDY    72  48  43 S7        30.06S
LONGMONT       FAIR      71  51  48 SE7       30.09R
$$

COZ041-046-047-076>085-087-088-030500-
...PIKES PEAK/PALMER DIVIDE AND SOUTHERN FOOTHILLS...

CITY           SKY/WX    TMP DP  RH WIND       PRES   REMARKS
COLO. SPRINGS  CLOUDY    71  47  42 N12       30.19R
A. F. ACADEMY  CLOUDY    64  53  67 N9        30.21S
ELLICOTT       FAIR     N/A N/A N/A S9        30.17R
FALCON         MOCLDY    65  50  58 CALM      30.24R
FORT CARSON    CLOUDY    72  49  43 N14       30.14R
LIMON          MOCLDY    67  50  54 CALM      30.13R
MONUMENT HILL  NOT AVBL
TRINIDAD       CLOUDY    64  57  78 W14       30.14R
$$

COZ042>045-048>051-090-091-030500-
...NORTHEAST COLORADO...

CITY           SKY/WX    TMP DP  RH WIND       PRES   REMARKS
GREELEY ARPT   CLOUDY    72  50  46 S9        30.06R
AKRON          MOCLDY    73  49  42 S7        30.07R
BURLINGTON     PTCLDY    73  56  54 S9        30.04R
WRAY           FAIR      74  53  47 E12       30.01S
STERLING       FAIR      70  54  56 SW5       30.02R
HOLYOKE        FAIR      72  57  60 SE7       30.01S
FORT MORGAN    FAIR      73  51  47 CALM      30.06R
$$

COZ086-089-092>099-030500-
...SOUTHEAST COLORADO...

CITY           SKY/WX    TMP DP  RH WIND       PRES   REMARKS
PUEBLO         MOCLDY    78  51  38 W6        30.06R
LA JUNTA       MOCLDY    75  53  46 SW6       30.04R
LAMAR          MOCLDY    76  56  49 SE8       29.98R
SPRINGFIELD      N/A     73  63  70 SE7       30.04R
$$



USA.gov is the U.S. government's official web portal to all federal, state and local government web resources and services.